IRIDIUM 12 [-] (24837 NORAD) Tracking and Keplerian Element Data

This shows tracking and keplerian element data for the satellite.

Feedback or suggestion? Click here.




ElementValue
Catalog24837
NameIRIDIUM 12 [-]
Epoch Orbit11053
Epoch Day245.04306069
Epoch Year2018
RAAN163.9159
Inclination86.3806
Eccentricity0.0051848
Argument of Perigee120.4905
Mean Anonmoly240.4791
Mean Motion16.44575885
Decay Rate0.19478961
L11 24837U 97030B 18245.04306069 .19478961 -19628-5 21160-3 0 9991
L22 24837 86.3806 163.9159 0051848 120.4905 240.4791 16.44575885110538



Live tracking and technical data element details for IRIDIUM 12 [-] (NORAD 24837). IRIDIUM 12 [-] can be tracked NOW for your location showing map with azimuth and elevation plus other details from your city location.







IsCatalogInMostPopularTable: catalog: 24837, numindb: 453
Update: records affected: 1



GetName: 24837 IRIDIUM 12 [-]

Hit Count: updated at: Thu, 15 May 2025 10:45:48 GMT